Home > Weather > Langenthal > Past weeks

Flag for Switzerland Past Weather in Langenthal, Bern, Switzerland — Yesterday and Last 2 Weeks

Now
74 °F

Mild.


Feels Like: 76 °F
Forecast: 61 / 87 °F
Wind: 2 mph from Southwest

Location: Wynau

Current Time: Aug 25, 2016 at 11:57:50 AM

Latest Report: Aug 25, 2016 at 11:00 AM


Visibility: N/A

Pressure: 30.07 "Hg

Humidity: 71%

Dew Point: 65 °F

Location of LangenthalLocation

Past Weather in Langenthal — Graph

°F

Langenthal Temperature Yesterday

Maximum temperature yesterday: 84 °F (at 5:00 PM)
Minimum temperature yesterday: 55 °F (at 7:00 AM)
Average temperature yesterday: 68 °F

High & Low Weather Summary for the Past Weeks

 TemperatureHumidityPressure
High84 °F (Aug 24, 5:00 PM)100% (Aug 13, 7:00 AM)30.40 "Hg (Aug 13, 7:00 AM)
Low45 °F (Aug 11, 6:00 AM)40% (Aug 22, 3:00 PM)29.80 "Hg (Aug 17, 6:00 PM)
Average65 °F79%30.11 "Hg
* Reported Aug 10 10:00 AM — Aug 25 10:00 AM, Langenthal, Weather by CustomWeather, © 2016

Note: Actual official high and low records may vary slightly from our data, if they occured in-between our weather recording intervals... More about our weather records

Advertising

Langenthal Weather History for the Previous 24 Hours

Scroll right to see more
 ConditionsComfort  
Time TempWeatherWind HumidityBarometerVisibility
10:00 AM
Thu, Aug 25
69 °FMild.1 mph80%30.09 "HgN/A
9:00 AM65 °FMild.1 mph91%30.10 "HgN/A
8:00 AM60 °FCool.No wind96%30.12 "HgN/A
7:00 AM57 °FCool.No wind99%30.12 "HgN/A
6:00 AM58 °FCool.1 mph99%30.11 "HgN/A
5:00 AM59 °FCool.No wind99%30.10 "HgN/A
3:00 AM61 °FCool.1 mph99%30.10 "HgN/A
2:00 AM62 °FCool.No wind98%30.10 "HgN/A
1:00 AM62 °FMild.1 mph99%30.11 "HgN/A
12:00 AM64 °FMild.1 mph94%30.11 "HgN/A
11:00 PM
Wed, Aug 24
65 °FMild.1 mph94%30.11 "HgN/A
10:00 PM67 °FMild.1 mph90%30.11 "HgN/A
9:00 PM69 °FMild.1 mph84%30.10 "HgN/A
8:00 PM74 °FMild.2 mph75%30.07 "HgN/A
7:00 PM81 °FWarm.6 mph60%30.05 "HgN/A
6:00 PM84 °FWarm.7 mph52%30.06 "HgN/A
5:00 PM84 °FWarm.6 mph48%30.06 "HgN/A
4:00 PM84 °FWarm.6 mph51%30.08 "HgN/A
3:00 PM82 °FWarm.3 mph54%30.10 "HgN/A
2:00 PM79 °FWarm.2 mph54%30.11 "HgN/A
1:00 PM78 °FWarm.2 mph61%30.14 "HgN/A
12:00 PM74 °FMild.2 mph61%30.16 "HgN/A
11:00 AM69 °FMild.1 mph71%30.19 "HgN/A
Weather by CustomWeather, © 2016

See weather overviewHow to use our weather pages